Wind_Speed
38 38 40 41 41 41 42 43 41 38 38 38 37 36 37 35 37 36 39 40 42 45 44 47 42 42 37 36 26 34 38 38 44 35 36 36 35 39 39 42 42 35 39
42 42 42 44 44 44 46 46 43 41 39 38 37 38 40 39 39 40 41 42 42 38 38 41 41 41 35 29 32 37 39 43 44 38 41 35 37 36 39 39 44 41 43
46 44 43 44 45 45 45 45 44 43 40 38 36 39 40 41 41 43 44 51 48 41 42 41 37 30 18 16 21 22 26 30 39 41 38 33 30 41 40 38 37 40 42
52 51 49 48 48 48 46 45 44 43 39 38 36 38 40 41 39 44 45 42 26 28 38 40 39 26 20 15 12 14 18 28 21 18 28 37 35 25 25 33 28 19 13
58 57 57 53 51 49 47 46 45 43 39 36 34 36 39 39 38 39 39 28 29 34 40 39 28 18 12 10 13 13 14 13 13 12 16 17 18 18 20 30 30 17 11
61 61 60 56 50 47 45 44 44 42 37 34 33 33 37 35 34 31 26 23 20 16 15 15 14 12 13 14 15 15 17 17 16 18 20 24 23 22 21 21 20 20 23
60 59 55 52 47 45 43 42 41 38 36 33 31 32 34 31 28 24 17 21 15 17 13 10 10 12 14 17 19 21 22 23 24 24 23 22 22 20 19 18 17 16 16
57 54 49 50 47 42 38 39 39 35 33 34 31 31 30 28 23 23 17 27 22 17 11 13 13 10 11 16 19 22 24 24 25 24 23 21 21 22 22 20 18 18 18
51 50 46 47 45 40 36 33 35 33 34 34 32 32 28 25 21 19 17 28 30 23 16 19 20 15 17 20 18 18 21 20 19 20 19 20 19 20 18 18 19 19 19
50 48 46 47 46 42 36 33 32 34 33 34 31 30 27 22 20 18 17 21 22 18 11 16 16 15 17 16 16 18 18 17 17 18 18 18 19 19 19 19 20 19 20
48 46 45 42 43 40 36 33 31 30 30 27 27 26 25 22 19 19 20 17 13 19 13 13 13 13 12 11 13 15 16 16 17 17 18 20 20 21 22 22 21 21 22
46 42 41 40 39 39 34 32 29 29 28 28 26 25 22 19 18 19 19 18 21 22 18 13 12 11 11 12 14 15 15 16 17 18 21 22 23 23 24 24 24 23 23
41 43 41 40 40 36 28 29 29 26 26 26 24 22 20 17 15 16 18 27 24 27 21 16 14 13 13 14 13 12 12 15 17 19 22 24 25 26 25 25 26 27 27
43 43 40 36 35 29 26 25 27 25 24 22 19 19 18 16 15 15 17 20 22 26 26 22 17 15 15 16 14 13 14 16 18 21 24 25 26 26 26 28 28 29 29
41 39 40 35 39 29 30 29 22 26 24 21 18 18 18 17 17 16 17 16 16 16 18 19 19 19 18 17 16 16 17 18 20 23 24 25 26 27 28 29 30 30 29
39 38 37 30 30 33 28 23 21 22 25 22 20 20 19 18 18 16 17 18 19 18 18 20 21 20 20 20 20 21 21 21 22 23 24 24 25 26 27 28 29 30 31
38 36 32 27 28 21 17 18 17 19 24 24 22 22 22 20 18 18 16 17 18 17 18 20 22 22 23 24 24 23 23 24 24 24 24 25 27 28 29 29 30 32 34
27 26 27 23 23 18 16 18 17 20 22 25 24 24 24 22 20 19 19 17 19 21 23 24 25 25 25 25 26 26 26 26 25 26 26 27 29 30 31 31 32 33 36
17 18 20 18 21 17 17 19 19 22 23 26 24 23 26 24 22 21 22 22 22 23 24 24 24 25 27 27 27 27 27 27 26 27 28 28 28 30 29 31 32 33 34
17 16 16 15 14 16 21 20 20 21 24 26 25 24 25 24 23 24 24 26 26 26 25 25 26 27 27 28 29 29 28 27 27 29 31 31 32 32 33 34 35 36 34
14 15 18 12 13 10 13 17 21 24 27 31 30 29 24 27 25 24 25 27 28 28 27 26 27 26 27 28 28 29 28 28 29 30 31 31 31 33 33 32 33 33 32
11 12 15 12 11 13 13 17 17 19 28 30 31 35 30 28 28 27 26 28 29 29 29 28 31 31 30 28 29 30 29 29 28 27 29 31 30 32 31 30 32 35 36
19 18 17 18 15 14 15 18 15 15 17 25 30 31 29 33 30 31 30 30 30 31 32 30 29 30 27 28 27 26 27 28 29 29 29 32 33 32 33 34 35 33 33
21 21 15 16 17 18 17 12 13 12 12 18 32 34 34 34 33 31 29 30 33 33 30 27 27 29 28 27 26 27 26 28 30 36 35 34 34 34 36 37 36 36 37
17 16 14 18 19 19 20 21 19 18 16 16 16 24 34 35 25 25 24 26 25 23 26 27 29 31 31 31 31 32 31 32 35 36 36 35 35 36 39 38 38 39 38
16 15 14 18 20 15 19 23 18 16 12 14 15 10 12 19 19 17 22 25 20 23 27 29 31 31 34 35 34 34 34 36 36 37 37 40 42 40 39 41 42 41 42
Wind_Direction
305 304 302 301 299 298 297 299 299 298 299 302 300 287 287 292 294 295 295 286 286 272 270 268 263 265 268 254 261 252 253 255 263 257 255 250 252 249 255 259 255 257 247
303 301 300 300 299 295 294 295 295 295 297 297 296 288 286 291 291 292 289 291 288 276 272 256 258 251 251 256 256 257 258 256 255 255 254 244 258 247 252 252 254 245 247
306 305 304 302 299 296 295 293 293 293 292 293 294 290 288 289 291 300 292 293 286 267 252 258 249 241 228 240 242 257 251 258 255 245 245 247 259 253 242 252 252 250 253
305 305 304 303 302 298 295 292 291 291 288 290 291 287 288 291 295 299 296 293 264 257 252 237 247 222 219 221 235 263 255 256 268 263 247 246 250 249 248 243 240 235 234
305 305 304 303 300 296 293 290 289 287 284 283 286 284 288 290 297 300 292 266 247 243 226 224 205 208 217 234 255 266 252 250 250 244 247 266 267 265 267 244 261 303 281
304 304 304 304 302 298 293 287 284 283 280 277 281 280 284 288 297 300 292 245 231 208 225 226 210 205 209 221 232 239 238 243 242 234 234 238 241 248 240 247 252 253 247
302 302 303 302 300 297 293 289 284 282 279 273 275 274 280 284 295 295 279 235 239 227 218 211 230 232 226 233 238 237 235 237 240 242 244 247 249 253 262 260 257 255 255
301 300 299 296 296 298 297 292 287 278 272 271 271 272 276 277 285 277 280 248 239 224 210 240 272 248 250 251 242 239 240 241 243 244 245 249 254 262 266 267 270 270 266
296 292 292 295 297 296 294 291 286 281 270 264 268 269 267 267 270 276 273 242 234 238 222 244 259 266 250 240 239 241 244 243 243 242 246 251 254 256 255 261 265 266 267
291 292 295 295 293 293 289 287 287 280 272 268 262 262 263 263 261 263 253 243 267 239 243 252 255 254 250 249 247 244 245 245 240 240 246 248 250 250 253 259 263 262 261
291 294 294 291 292 291 290 286 283 276 270 263 260 257 258 257 253 253 246 244 249 235 250 250 245 235 231 234 241 243 240 240 246 247 243 242 247 251 254 257 259 261 260
294 292 292 291 290 286 284 282 278 272 268 262 261 257 252 248 250 244 238 237 233 242 247 239 234 228 225 232 238 244 247 246 245 243 244 247 250 253 255 257 260 263 264
291 293 292 291 290 276 276 279 274 266 261 260 256 253 244 245 246 241 230 227 239 240 234 236 230 231 233 237 244 248 250 248 248 250 251 253 256 257 258 259 261 262 262
291 291 297 295 295 307 283 275 274 262 255 256 242 239 236 237 240 240 238 238 238 233 232 223 226 234 235 238 242 250 255 258 258 258 257 258 260 260 260 259 259 258 259
291 285 296 286 287 267 279 270 262 256 248 244 233 234 228 228 232 236 237 234 229 222 225 222 228 232 233 238 248 257 264 264 261 257 256 258 258 259 259 259 259 259 260
291 284 289 282 281 289 280 244 248 244 247 241 242 235 236 232 229 234 235 237 237 229 224 226 235 237 239 247 258 265 266 265 262 260 259 260 261 261 260 260 261 263 263
285 282 286 287 288 279 239 234 246 239 246 243 245 241 241 238 229 235 236 231 232 233 233 237 241 246 251 258 265 269 269 266 265 263 260 261 263 263 261 261 262 262 261
284 281 283 281 276 265 245 239 241 244 250 243 244 241 244 246 241 239 241 237 234 235 237 241 248 256 263 267 269 268 266 265 263 262 258 257 259 260 259 258 259 258 259
284 289 295 288 275 258 245 250 240 242 246 244 243 246 248 250 249 244 244 246 244 243 246 251 257 261 263 264 265 264 262 261 261 259 257 258 257 257 258 262 259 256 254
289 291 296 291 265 255 259 244 238 244 249 250 243 244 248 248 246 243 242 246 249 250 250 250 251 254 258 260 261 262 265 265 263 258 256 256 258 260 263 264 264 262 263
289 283 293 271 263 272 249 261 254 247 240 247 244 242 243 246 245 241 241 243 243 244 246 251 256 258 264 266 266 264 262 263 262 265 261 266 263 263 266 268 268 258 259
308 298 297 293 287 287 296 298 283 258 246 235 245 245 239 240 241 239 238 239 240 239 246 252 255 255 258 259 258 258 258 260 259 262 260 261 260 265 268 266 262 262 264
310 302 294 295 286 291 294 297 285 268 247 236 242 246 246 244 242 244 242 244 247 250 252 260 258 257 258 259 261 265 265 256 259 266 270 266 271 272 270 267 264 267 268
294 299 280 286 294 291 290 298 271 280 271 262 251 246 255 265 240 237 244 253 254 253 252 257 254 255 258 252 260 266 266 263 262 272 273 275 275 273 272 273 271 268 270
312 296 290 285 287 291 279 287 294 268 266 276 275 248 246 251 241 244 250 255 247 255 254 257 258 258 259 260 266 272 269 277 268 272 275 274 273 275 273 273 274 272 270
304 303 292 277 275 268 271 269 280 272 276 275 262 258 256 253 258 248 259 264 262 265 266 267 269 269 263 264 265 268 271 272 270 266 267 275 274 274 276 275 272 273 271
Height
5888 5884 5880 5876 5872 5867 5863 5860 5856 5851 5846 5842 5837 5833 5830 5827 5823 5820 5814 5811 5808 5804 5804 5806 5808 5812 5812 5814 5816 5817 5820 5823 5826 5827 5831 5831 5832 5833 5834 5835 5835 5838 5839
5879 5875 5870 5865 5861 5856 5852 5848 5843 5840 5835 5831 5827 5823 5819 5817 5813 5809 5804 5800 5796 5793 5792 5794 5798 5800 5801 5804 5806 5809 5811 5814 5815 5818 5820 5822 5822 5822 5824 5825 5826 5827 5830
5865 5862 5859 5854 5849 5845 5840 5836 5832 5828 5824 5820 5816 5811 5808 5805 5801 5797 5791 5786 5780 5779 5780 5783 5787 5786 5791 5796 5799 5801 5803 5805 5806 5808 5810 5812 5814 5813 5814 5817 5817 5819 5819
5852 5849 5846 5842 5836 5831 5827 5823 5819 5816 5813 5810 5806 5802 5797 5794 5790 5785 5779 5772 5767 5767 5769 5771 5778 5777 5781 5788 5792 5797 5798 5799 5800 5802 5804 5804 5805 5809 5809 5812 5813 5813 5814
5839 5834 5830 5827 5822 5817 5813 5810 5806 5803 5801 5798 5795 5791 5787 5783 5781 5775 5767 5763 5759 5761 5761 5764 5767 5771 5776 5782 5786 5790 5791 5794 5796 5796 5798 5800 5802 5804 5805 5807 5807 5808 5809
5825 5819 5814 5809 5806 5802 5798 5795 5792 5790 5789 5787 5783 5780 5777 5775 5773 5767 5760 5758 5758 5760 5762 5763 5764 5767 5772 5777 5781 5784 5785 5788 5790 5792 5793 5794 5795 5797 5800 5802 5803 5804 5806
5811 5804 5799 5793 5790 5786 5783 5780 5778 5777 5776 5774 5773 5770 5768 5767 5764 5760 5757 5757 5756 5758 5760 5762 5762 5765 5768 5771 5775 5777 5778 5781 5784 5787 5789 5790 5793 5795 5795 5796 5798 5798 5800
5796 5790 5786 5780 5776 5773 5770 5767 5764 5764 5762 5762 5762 5760 5760 5759 5757 5754 5753 5753 5754 5755 5757 5758 5759 5761 5763 5766 5769 5771 5773 5774 5778 5781 5783 5785 5788 5789 5790 5791 5791 5792 5794
5783 5777 5774 5767 5764 5761 5758 5755 5753 5751 5751 5750 5750 5750 5751 5751 5750 5748 5748 5748 5749 5750 5753 5753 5755 5756 5759 5760 5762 5763 5766 5767 5770 5774 5777 5780 5781 5784 5784 5786 5787 5787 5789
5769 5765 5761 5756 5751 5749 5746 5743 5741 5740 5739 5740 5740 5739 5741 5742 5743 5743 5742 5744 5745 5743 5747 5750 5751 5751 5752 5754 5756 5759 5760 5762 5766 5769 5771 5772 5776 5778 5779 5781 5782 5782 5783
5755 5752 5748 5744 5741 5738 5736 5734 5731 5729 5729 5729 5729 5730 5732 5735 5736 5737 5738 5738 5740 5740 5743 5745 5746 5747 5748 5750 5753 5755 5758 5760 5762 5764 5766 5768 5770 5772 5774 5776 5777 5777 5778
5742 5739 5737 5734 5730 5726 5724 5723 5721 5720 5720 5720 5721 5722 5725 5727 5728 5730 5732 5735 5733 5738 5740 5742 5743 5744 5745 5747 5750 5752 5754 5756 5757 5759 5762 5764 5765 5767 5768 5770 5771 5772 5772
5731 5727 5724 5721 5716 5701 5711 5712 5712 5711 5711 5712 5712 5715 5717 5719 5722 5723 5725 5729 5728 5732 5735 5736 5738 5740 5742 5744 5746 5748 5750 5752 5753 5754 5755 5757 5758 5760 5761 5763 5764 5765 5766
5721 5716 5715 5711 5707 5703 5702 5702 5704 5703 5703 5704 5706 5709 5711 5713 5715 5717 5719 5721 5723 5725 5728 5731 5734 5736 5737 5739 5741 5743 5745 5746 5747 5748 5749 5750 5751 5753 5754 5755 5756 5758 5759
5708 5706 5703 5698 5692 5684 5689 5694 5695 5696 5696 5698 5700 5704 5705 5707 5709 5711 5714 5716 5718 5720 5723 5726 5728 5730 5732 5734 5736 5737 5738 5740 5741 5741 5742 5743 5745 5746 5747 5748 5749 5750 5751
5696 5694 5691 5688 5685 5681 5680 5682 5685 5687 5690 5692 5695 5697 5699 5701 5703 5706 5708 5710 5713 5715 5717 5720 5722 5724 5726 5727 5729 5730 5731 5732 5733 5733 5733 5735 5737 5739 5740 5741 5742 5742 5743
5684 5682 5680 5678 5676 5674 5671 5675 5679 5680 5684 5687 5688 5690 5693 5695 5696 5700 5702 5705 5707 5710 5711 5713 5715 5717 5719 5720 5722 5722 5723 5723 5724 5725 5726 5727 5728 5730 5731 5733 5733 5734 5734
5671 5671 5670 5668 5668 5668 5668 5670 5673 5676 5678 5681 5683 5684 5687 5689 5691 5694 5696 5699 5701 5703 5705 5706 5708 5710 5711 5712 5712 5713 5714 5715 5715 5716 5717 5718 5720 5721 5722 5723 5723 5724 5725
5666 5665 5663 5662 5661 5661 5663 5665 5668 5669 5671 5674 5677 5679 5681 5683 5684 5686 5689 5691 5693 5695 5697 5698 5700 5702 5703 5704 5704 5705 5705 5706 5707 5708 5710 5711 5711 5712 5712 5712 5712 5713 5714
5662 5661 5660 5659 5657 5657 5657 5658 5660 5663 5666 5668 5670 5671 5674 5677 5678 5678 5681 5683 5686 5687 5689 5691 5692 5693 5694 5695 5695 5696 5696 5697 5698 5699 5700 5701 5702 5701 5701 5701 5700 5701 5702
5657 5657 5656 5656 5655 5653 5653 5653 5653 5655 5657 5659 5662 5664 5667 5670 5672 5672 5674 5676 5678 5679 5681 5682 5683 5685 5685 5686 5687 5687 5688 5688 5689 5690 5691 5691 5691 5691 5691 5690 5690 5690 5691
5654 5653 5653 5652 5651 5651 5650 5648 5648 5647 5647 5650 5653 5656 5659 5662 5665 5666 5668 5669 5670 5671 5673 5674 5675 5675 5676 5676 5677 5677 5678 5678 5679 5679 5679 5679 5680 5680 5681 5681 5680 5680 5681
5650 5648 5648 5648 5647 5645 5645 5645 5642 5641 5641 5644 5646 5647 5651 5652 5655 5657 5658 5660 5661 5663 5663 5664 5665 5666 5666 5667 5668 5669 5669 5669 5670 5668 5669 5668 5668 5669 5669 5670 5670 5669 5668
5645 5643 5643 5642 5641 5640 5640 5638 5637 5636 5636 5637 5637 5639 5641 5643 5642 5645 5648 5650 5651 5652 5653 5654 5655 5656 5657 5657 5657 5658 5659 5659 5658 5658 5657 5657 5656 5657 5656 5656 5657 5657 5657
5640 5639 5638 5637 5636 5635 5634 5633 5631 5629 5630 5629 5628 5629 5633 5632 5634 5637 5637 5638 5639 5641 5643 5645 5645 5646 5647 5647 5646 5647 5647 5647 5646 5645 5643 5642 5643 5643 5643 5643 5644 5644 5644
5636 5634 5632 5631 5631 5630 5629 5628 5626 5627 5624 5620 5624 5624 5625 5626 5628 5628 5630 5629 5628 5631 5633 5635 5635 5635 5635 5634 5634 5634 5634 5633 5632 5632 5631 5630 5630 5630 5629 5629 5629 5629 5630